ProjectID,Date,Electric Generation,Electric Utility Import,Facility Electric Load
,YYYY-MM-DD,kW,kW,kW
452,2017-06-01,0.0,,0.0
452,2017-06-02,0.0,,0.0
452,2017-06-03,0.0,,0.0
452,2017-06-04,0.0,,0.0
452,2017-06-05,0.0,,0.0
452,2017-06-06,0.0,,0.0
452,2017-06-07,0.0,,0.0
452,2017-06-08,0.0,,0.0
452,2017-06-09,0.0,,0.0
452,2017-06-10,0.0,,0.0
452,2017-06-11,0.0,,0.0
452,2017-06-12,0.0,,0.0
452,2017-06-13,0.0,,0.0
452,2017-06-14,0.0,,0.0
452,2017-06-15,0.0,,0.0
452,2017-06-16,0.0,,0.0
452,2017-06-17,0.0,,0.0
452,2017-06-18,0.0,,0.0
452,2017-06-19,34.40625,37.037708333333335,71.44395833333334
452,2017-06-20,2.5505,54.944583333333334,57.49508333333333
452,2017-06-21,0.0,55.32391666666666,55.32391666666666
452,2017-06-22,0.0,56.58308333333333,56.58308333333333
452,2017-06-23,0.0,67.5795,67.5795
452,2017-06-24,0.0,72.698125,72.698125
452,2017-06-25,0.0,69.92033333333333,69.92033333333333
452,2017-06-26,0.0,54.43841666666666,54.43841666666666
452,2017-06-27,3.795666666666667,84.400875,88.19654166666666
452,2017-06-28,0.0,73.73279166666667,73.73279166666667
452,2017-06-29,0.0,52.12520833333334,52.12520833333334
452,2017-06-30,15.023458333333336,72.69833333333334,87.72179166666668
452,2017-07-01,27.00295833333333,88.11900000000001,115.12195833333334
452,2017-07-02,24.442958333333333,92.57825000000001,117.02120833333335
452,2017-07-03,26.820333333333334,103.400125,130.22045833333334
452,2017-07-04,28.533500000000004,98.41104166666666,126.94454166666667
452,2017-07-05,22.69225,96.090125,118.782375
452,2017-07-06,8.742416666666665,68.17504166666667,76.91745833333334
452,2017-07-07,0.0,54.12437499999999,54.12437499999999
452,2017-07-08,0.0,50.59116666666667,50.59116666666667
452,2017-07-09,0.0,45.42395833333333,45.42395833333333
452,2017-07-10,0.0,57.17883333333333,57.17883333333333
452,2017-07-11,12.232375,95.50675,107.739125
452,2017-07-12,12.268875000000001,99.15870833333334,111.42758333333333
452,2017-07-13,0.0,99.53025000000001,99.53025000000001
452,2017-07-14,0.0,66.23370833333333,66.23370833333333
452,2017-07-15,0.0,45.41558333333333,45.41558333333333
452,2017-07-16,0.0,51.288375,51.288375
452,2017-07-17,0.0,61.625125,61.625125
452,2017-07-18,0.0,63.95345833333334,63.95345833333334
452,2017-07-19,0.0,76.10091666666666,76.10091666666666
452,2017-07-20,0.0,109.1305,109.1305
452,2017-07-21,0.0,87.48754166666667,87.48754166666667
452,2017-07-22,0.0,87.41541666666666,87.41541666666666
452,2017-07-23,0.0,69.19145833333333,69.19145833333333
452,2017-07-24,0.0,48.91941666666667,48.91941666666667
452,2017-07-25,0.0,49.947624999999995,49.947624999999995
452,2017-07-26,0.0,50.134791666666665,50.134791666666665
452,2017-07-27,0.0,51.424791666666664,51.424791666666664
452,2017-07-28,0.0,47.92691666666667,47.92691666666667
452,2017-07-29,0.0,50.04533333333333,50.04533333333333
452,2017-07-30,0.0,47.448625,47.448625
452,2017-07-31,0.0,75.75295833333332,75.75295833333332
452,2017-08-01,0.0,131.85416666666666,131.85416666666666
452,2017-08-02,0.0,131.55658333333335,131.55658333333335
452,2017-08-03,0.34837499999999993,127.56712499999999,127.9155
452,2017-08-04,0.015625,89.237375,89.253
452,2017-08-05,0.0,44.21616666666667,44.21616666666667
452,2017-08-06,0.0,47.251625,47.251625
452,2017-08-07,0.0,51.330666666666666,51.330666666666666
452,2017-08-08,0.0,50.162749999999996,50.162749999999996
452,2017-08-09,0.0,50.749,50.749
452,2017-08-10,0.0,49.02129166666666,49.02129166666666
452,2017-08-11,0.0,46.60541666666666,46.60541666666666
452,2017-08-12,0.0,48.79929166666667,48.79929166666667
452,2017-08-13,0.0,51.368875,51.368875
452,2017-08-14,0.0,49.204499999999996,49.204499999999996
452,2017-08-15,0.0,49.82091666666667,49.82091666666667
452,2017-08-16,0.0,51.39329166666667,51.39329166666667
452,2017-08-17,0.0,49.795291666666664,49.795291666666664
452,2017-08-18,0.0,54.92283333333333,54.92283333333333
452,2017-08-19,0.0,51.833875,51.833875
452,2017-08-20,0.0,51.6355,51.6355
452,2017-08-21,0.0,52.316833333333335,52.316833333333335
452,2017-08-22,0.0,65.16791666666667,65.16791666666667
452,2017-08-23,0.0,51.135124999999995,51.135124999999995
452,2017-08-24,0.0,43.467166666666664,43.467166666666664
452,2017-08-25,0.0,41.06583333333334,41.06583333333334
452,2017-08-26,0.0,40.56775,40.56775
452,2017-08-27,0.0,40.98008333333333,40.98008333333333
452,2017-08-28,0.0,41.09641666666666,41.09641666666666
452,2017-08-29,0.0,41.594125,41.594125
452,2017-08-30,0.0,42.016,42.016
452,2017-08-31,0.0,41.57266666666667,41.57266666666667
452,2017-09-01,0.0,41.986875,41.986875
452,2017-09-02,0.0,42.486333333333334,42.486333333333334
452,2017-09-03,0.0,42.157833333333336,42.157833333333336
452,2017-09-04,0.0,42.238,42.238
452,2017-09-05,0.0,44.46216666666667,44.46216666666667
452,2017-09-06,0.0,41.21454166666667,41.21454166666667
452,2017-09-07,0.0,43.05220833333333,43.05220833333333
452,2017-09-08,0.0,41.74483333333333,41.74483333333333
452,2017-09-09,0.0,42.063916666666664,42.063916666666664
452,2017-09-10,0.0,41.60425,41.60425
452,2017-09-11,0.0,41.60295833333333,41.60295833333333
452,2017-09-12,0.0,44.513083333333334,44.513083333333334
452,2017-09-13,0.0,44.69866666666667,44.69866666666667
452,2017-09-14,0.0,44.610166666666665,44.610166666666665
452,2017-09-15,0.0,53.58075,53.58075
452,2017-09-16,0.0,60.21095833333334,60.21095833333334
452,2017-09-17,0.0,68.39595833333333,68.39595833333333
452,2017-09-18,0.0,55.409,55.409
452,2017-09-19,0.0,49.523374999999994,49.523374999999994
452,2017-09-20,0.0,44.812666666666665,44.812666666666665
452,2017-09-21,0.0,41.935625,41.935625
452,2017-09-22,0.0,41.700541666666666,41.700541666666666
452,2017-09-23,0.0,40.94929166666667,40.94929166666667
452,2017-09-24,0.0,64.05925,64.05925
452,2017-09-25,0.0,70.44725,70.44725
452,2017-09-26,0.0,48.69008333333333,48.69008333333333
452,2017-09-27,0.0,58.646625,58.646625
452,2017-09-28,0.0,44.395833333333336,44.395833333333336
452,2017-09-29,0.0,41.88741666666667,41.88741666666667
452,2017-09-30,0.0,42.69804166666666,42.69804166666666
452,2017-10-01,0.0,42.569625,42.569625
452,2017-10-02,0.0,43.11083333333334,43.11083333333334
452,2017-10-03,0.0,42.388125,42.388125
452,2017-10-04,0.0,42.75066666666667,42.75066666666667
452,2017-10-05,0.0,43.611333333333334,43.611333333333334
452,2017-10-06,0.0,41.19020833333334,41.19020833333334
452,2017-10-07,0.0,39.966791666666666,39.966791666666666
452,2017-10-08,0.0,44.19745833333334,44.19745833333334
452,2017-10-09,0.0,45.46025,45.46025
452,2017-10-10,0.0,45.857499999999995,45.857499999999995
452,2017-10-11,0.0,42.029375,42.029375
452,2017-10-12,0.0,42.124375,42.124375
452,2017-10-13,0.0,42.32366666666667,42.32366666666667
452,2017-10-14,0.0,41.742875,41.742875
452,2017-10-15,0.0,41.388041666666666,41.388041666666666
452,2017-10-16,0.0,42.079458333333335,42.079458333333335
452,2017-10-17,0.0,42.18954166666666,42.18954166666666
452,2017-10-18,0.0,42.40116666666667,42.40116666666667
452,2017-10-19,0.0,42.57154166666667,42.57154166666667
452,2017-10-20,0.0,42.984541666666665,42.984541666666665
452,2017-10-21,0.0,43.15175,43.15175
452,2017-10-22,0.0,43.067125000000004,43.067125000000004
452,2017-10-23,0.0,44.05408333333333,44.05408333333333
452,2017-10-24,0.0,42.38154166666667,42.38154166666667
452,2017-10-25,0.0,45.73770833333333,45.73770833333333
452,2017-10-26,0.0,43.099041666666665,43.099041666666665
452,2017-10-27,0.0,43.254041666666666,43.254041666666666
452,2017-10-28,0.0,42.99616666666666,42.99616666666666
452,2017-10-29,0.0,41.711625,41.711625
452,2017-10-30,0.0,42.31583333333334,42.31583333333334
452,2017-10-31,0.0,42.603541666666665,42.603541666666665
452,2017-11-01,0.0,46.79116666666667,46.79116666666667
452,2017-11-02,0.0,41.516333333333336,41.516333333333336
452,2017-11-03,0.0,42.079458333333335,42.079458333333335
452,2017-11-04,0.0,41.34583333333333,41.34583333333333
452,2017-11-05,0.0,39.36658333333333,39.36658333333333
452,2017-11-06,0.0,41.169375,41.169375
452,2017-11-07,0.0,50.58991666666666,50.58991666666666
452,2017-11-08,0.0,55.0385,55.0385
452,2017-11-09,0.0,55.19475,55.19475
452,2017-11-10,0.0,102.51508333333334,102.51508333333334
452,2017-11-11,0.0,173.43816666666666,173.43816666666666
452,2017-11-12,0.0,137.19154166666667,137.19154166666667
452,2017-11-13,0.0,65.78195833333334,65.78195833333334
452,2017-11-14,0.0,93.289125,93.289125
452,2017-11-15,0.0,86.227875,86.227875
452,2017-11-16,0.0,14.456416666666668,14.456416666666668
452,2017-11-17,0.0,0.0,0.0
452,2017-11-18,0.0,0.0,0.0
452,2017-11-19,0.0,0.0,0.0
452,2017-11-20,0.0,76.73970833333333,76.73970833333333
452,2017-11-21,0.0,109.884125,109.884125
452,2017-11-22,0.0,100.618,100.618
452,2017-11-23,0.0,135.58729166666666,135.58729166666666
452,2017-11-24,0.0,129.48575,129.48575
452,2017-11-25,0.0,107.28716666666666,107.28716666666666
452,2017-11-26,0.0,110.28920833333332,110.28920833333332
452,2017-11-27,0.0,113.956375,113.956375
452,2017-11-28,0.0,114.92899999999999,114.92899999999999
452,2017-11-29,0.0,91.21095833333334,91.21095833333334
452,2017-11-30,0.0,93.61920833333333,93.61920833333333
452,2017-12-01,0.0,81.89529166666667,81.89529166666667
452,2017-12-02,0.0,92.18495833333333,92.18495833333333
452,2017-12-03,0.0,100.50145833333333,100.50145833333333
452,2017-12-04,0.0,78.493625,78.493625
452,2017-12-05,0.0,63.89729166666667,63.89729166666667
452,2017-12-06,0.0,85.79441666666666,85.79441666666666
452,2017-12-07,0.0,114.59120833333333,114.59120833333333
452,2017-12-08,0.0,142.36991666666668,142.36991666666668
452,2017-12-09,0.0,202.939,202.939
452,2017-12-10,0.0,196.58474999999999,196.58474999999999
452,2017-12-11,0.0,160.98970833333334,160.98970833333334
452,2017-12-12,0.0,130.33741666666666,130.33741666666666
452,2017-12-13,0.0,255.8177916666667,255.8177916666667
452,2017-12-14,0.0,252.36733333333333,252.36733333333333
452,2017-12-15,0.0,288.32820833333335,288.32820833333335
452,2017-12-16,0.0,272.774875,272.774875
452,2017-12-17,0.0,218.01833333333332,218.01833333333332
452,2017-12-18,0.0,154.97266666666667,154.97266666666667
452,2017-12-19,0.0,96.55741666666667,96.55741666666667
452,2017-12-20,0.0,112.42720833333334,112.42720833333334
452,2017-12-21,0.0,147.50529166666666,147.50529166666666
452,2017-12-22,0.0,133.28525,133.28525
452,2017-12-23,0.0,119.32045833333332,119.32045833333332
452,2017-12-24,0.0,126.36466666666666,126.36466666666666
452,2017-12-25,0.0,154.87775,154.87775
452,2017-12-26,0.0,269.289125,269.289125
452,2017-12-27,0.0,320.5613333333333,320.5613333333333
452,2017-12-28,0.21433333333333335,405.82045833333336,406.0347916666667
452,2017-12-29,0.242625,405.468875,405.7115
452,2017-12-30,0.03745833333333334,356.9845416666667,357.02200000000005
452,2017-12-31,0.330625,435.81275,436.143375
452,2018-01-01,1.2077083333333338,517.6745,518.8822083333333
452,2018-01-02,0.25204166666666666,400.29695833333335,400.54900000000004
452,2018-01-03,0.03808333333333334,359.4220416666667,359.46012500000006
452,2018-01-04,0.45012500000000005,462.225375,462.6755
452,2018-01-05,0.9175,436.4857083333333,437.40320833333334
452,2018-01-06,0.9998750000000002,555.8516666666666,556.8515416666665
452,2018-01-07,0.808375,546.6760416666667,547.4844166666667
452,2018-01-08,0.03908333333333333,359.13937500000003,359.17845833333337
452,2018-01-09,0.0,219.70445833333335,219.70445833333335
452,2018-01-10,0.0,171.41033333333337,171.41033333333337
452,2018-01-11,0.0,97.81787500000002,97.81787500000002
452,2018-01-12,0.0,68.435,68.435
452,2018-01-13,0.0,110.75400000000002,110.75400000000002
452,2018-01-14,0.0,293.3230833333334,293.3230833333334
452,2018-01-15,0.0,302.78908333333334,302.78908333333334
452,2018-01-16,0.0,228.89733333333336,228.89733333333336
452,2018-01-17,0.0,230.12000000000003,230.12000000000003
452,2018-01-18,0.0,265.20862500000004,265.20862500000004
452,2018-01-19,0.0,209.89350000000005,209.89350000000005
452,2018-01-20,0.0,135.76850000000005,135.76850000000005
452,2018-01-21,0.0,81.86479166666669,81.86479166666669
452,2018-01-22,0.0,72.02883333333334,72.02883333333334
452,2018-01-23,0.0,71.299625,71.299625
452,2018-01-24,0.0,106.35962500000001,106.35962500000001
452,2018-01-25,0.0,207.4195,207.4195
452,2018-01-26,0.0,188.98458333333335,188.98458333333335
452,2018-01-27,0.0,125.87000000000002,125.87000000000002
452,2018-01-28,0.0,86.76333333333336,86.76333333333336
452,2018-01-29,0.0,89.06012500000001,89.06012500000001
452,2018-01-30,0.0,160.14870833333336,160.14870833333336
452,2018-01-31,0.0,242.1694166666667,242.1694166666667
452,2018-02-01,0.0,172.58354166666666,172.58354166666666
452,2018-02-02,0.0,232.83358333333334,232.83358333333334
452,2018-02-03,0.0,316.8361666666667,316.8361666666667
452,2018-02-04,0.0,227.48462500000005,227.48462500000005
452,2018-02-05,0.0,182.5549166666667,182.5549166666667
452,2018-02-06,0.0,213.9585833333334,213.9585833333334
452,2018-02-07,0.0,215.83620833333336,215.83620833333336
452,2018-02-08,0.0,218.1799583333334,218.1799583333334
452,2018-02-09,0.0,220.68258333333338,220.68258333333338
452,2018-02-10,0.0,141.18770833333335,141.18770833333335
452,2018-02-11,0.0,90.45595833333334,90.45595833333334
452,2018-02-12,0.0,91.59925,91.59925
452,2018-02-13,0.0,161.64608333333337,161.64608333333337
452,2018-02-14,0.0,122.30237500000003,122.30237500000003
452,2018-02-15,0.0,77.30233333333335,77.30233333333335
452,2018-02-16,0.0,62.703458333333344,62.703458333333344
452,2018-02-17,0.0,120.39350000000002,120.39350000000002
452,2018-02-18,0.0,120.95862500000003,120.95862500000003
452,2018-02-19,0.0,113.29450000000003,113.29450000000003
452,2018-02-20,0.0,57.13833333333335,57.13833333333335
452,2018-02-21,0.0,44.359583333333326,44.359583333333326
452,2018-02-22,0.0,68.15899999999999,68.15899999999999
452,2018-02-23,0.0,125.34404166666668,125.34404166666668
452,2018-02-24,0.0,89.76329166666669,89.76329166666669
452,2018-02-25,0.0,118.95091666666671,118.95091666666671
452,2018-02-26,0.0,91.80487500000002,91.80487500000002
452,2018-02-27,0.0,82.05495833333335,82.05495833333335
452,2018-02-28,0.0,72.71645833333335,72.71645833333335
452,2018-03-01,0.0,58.88566666666668,58.88566666666668
452,2018-03-02,0.0,145.1591666666667,145.1591666666667
452,2018-03-03,0.0,148.24762500000003,148.24762500000003
452,2018-03-04,0.0,160.53408333333337,160.53408333333337
452,2018-03-05,0.0,153.47679166666668,153.47679166666668
452,2018-03-06,0.0,134.4741666666667,134.4741666666667
452,2018-03-07,0.0,203.94558333333336,203.94558333333336
452,2018-03-08,0.0,149.29975000000005,149.29975000000005
452,2018-03-09,0.0,154.51583333333335,154.51583333333335
452,2018-03-10,0.0,175.76058333333336,175.76058333333336
452,2018-03-11,0.0,152.54970833333337,152.54970833333337
452,2018-03-12,0.0,134.45337500000002,134.45337500000002
452,2018-03-13,0.0,172.32320833333335,172.32320833333335
452,2018-03-14,0.0,165.53412500000005,165.53412500000005
452,2018-03-15,0.0,165.70075000000003,165.70075000000003
452,2018-03-16,0.0,172.18262500000003,172.18262500000003
452,2018-03-17,0.0,189.14091666666673,189.14091666666673
452,2018-03-18,0.0,168.1565416666667,168.1565416666667
452,2018-03-19,0.0,126.70600000000003,126.70600000000003
452,2018-03-20,0.0,164.90908333333337,164.90908333333337
452,2018-03-21,0.0,237.22941666666668,237.22941666666668
452,2018-03-22,0.0,151.93250000000003,151.93250000000003
452,2018-03-23,0.0,115.20337500000004,115.20337500000004
452,2018-03-24,0.0,115.55758333333337,115.55758333333337
452,2018-03-25,0.0,128.57575000000003,128.57575000000003
452,2018-03-26,0.0,115.34400000000004,115.34400000000004
452,2018-03-27,0.0,119.34395833333336,119.34395833333336
452,2018-03-28,0.0,100.6695416666667,100.6695416666667
452,2018-03-29,0.0,82.49770833333336,82.49770833333336
452,2018-03-30,0.0,61.53141666666668,61.53141666666668
452,2018-03-31,0.0,66.10700000000001,66.10700000000001
452,2018-04-01,0.0,66.30491666666667,66.30491666666667
452,2018-04-02,0.0,99.09666666666669,99.09666666666669
452,2018-04-03,0.0,107.27104166666668,107.27104166666668
452,2018-04-04,0.0,96.44041666666669,96.44041666666669
452,2018-04-05,0.0,116.7216666666667,116.7216666666667
452,2018-04-06,0.0,104.2894166666667,104.2894166666667
452,2018-04-07,0.0,100.60445833333335,100.60445833333335
452,2018-04-08,0.0,128.10437500000003,128.10437500000003
452,2018-04-09,0.0,122.97429166666672,122.97429166666672
452,2018-04-10,0.0,103.3387916666667,103.3387916666667
452,2018-04-11,0.0,95.6330416666667,95.6330416666667
452,2018-04-12,0.0,66.38837500000004,66.38837500000004
452,2018-04-13,0.0,44.28925,44.28925
452,2018-04-14,0.0,41.20079166666667,41.20079166666667
452,2018-04-15,0.0,71.14341666666667,71.14341666666667
452,2018-04-16,0.0,68.32050000000001,68.32050000000001
452,2018-04-17,0.0,80.73200000000001,80.73200000000001
452,2018-04-18,0.0,78.20858333333335,78.20858333333335
452,2018-04-19,0.0,83.50808333333333,83.50808333333333
452,2018-04-20,0.0,113.44808333333337,113.44808333333337
452,2018-04-21,0.0,82.7085416666667,82.7085416666667
452,2018-04-22,0.0,60.67470833333334,60.67470833333334
452,2018-04-23,0.0,50.61741666666668,50.61741666666668
452,2018-04-24,6.011583333333334,58.19820833333333,64.20979166666666
452,2018-04-25,9.145833333333334,74.5836666666667,83.72950000000003
452,2018-04-26,9.288374999999998,66.31275000000002,75.60112500000002
452,2018-04-27,10.810041666666665,66.79195833333335,77.60200000000002
452,2018-04-28,10.562916666666666,64.3050416666667,74.86795833333336
452,2018-04-29,12.627458333333331,73.07841666666668,85.70587500000002
452,2018-04-30,13.878083333333334,87.28408333333334,101.16216666666668
452,2018-05-01,9.663833333333335,74.58875000000002,84.25258333333335
452,2018-05-02,7.901125,61.92991666666668,69.83104166666668
452,2018-05-03,7.0246249999999995,76.34912500000002,83.37375000000002
452,2018-05-04,10.649791666666669,83.61475000000002,94.26454166666669
452,2018-05-05,11.167375000000002,73.34662500000002,84.51400000000002
452,2018-05-06,8.157833333333333,69.04966666666668,77.20750000000001
452,2018-05-07,7.2535,60.92475000000001,68.17825
452,2018-05-08,5.252458333333333,59.08625000000001,64.33870833333334
452,2018-05-09,7.547208333333333,61.278916666666674,68.826125
452,2018-05-10,6.694291666666667,55.140875000000015,61.83516666666668
452,2018-05-11,3.3151666666666664,41.515833333333326,44.83099999999999
452,2018-05-12,0.0,41.929916666666664,41.929916666666664
452,2018-05-13,3.2142916666666665,41.37779166666666,44.59208333333333
452,2018-05-14,4.254708333333333,42.34133333333333,46.596041666666665
452,2018-05-15,0.0,42.599124999999994,42.599124999999994
452,2018-05-16,9.505208333333334,43.745083333333326,53.25029166666666
452,2018-05-17,27.34175,42.078374999999994,69.420125
452,2018-05-18,28.295624999999998,43.97420833333333,72.26983333333332
452,2018-05-19,31.385166666666663,43.24508333333333,74.63024999999999
452,2018-05-20,26.533791666666673,43.35704166666667,69.89083333333335
452,2018-05-21,29.196583333333333,44.112249999999996,73.30883333333333
452,2018-05-22,27.428375,43.00808333333333,70.43645833333333
452,2018-05-23,27.634125,45.346624999999996,72.98075
452,2018-05-24,28.575083333333325,46.633041666666664,75.208125
452,2018-05-25,27.326708333333332,57.067874999999994,84.39458333333333
452,2018-05-26,23.341875,71.67991666666667,95.02179166666667
452,2018-05-27,16.44175,57.85183333333335,74.29358333333334
452,2018-05-28,30.057416666666665,42.635708333333326,72.693125
452,2018-05-29,21.360458333333337,43.755500000000005,65.11595833333334
452,2018-05-30,22.424958333333336,42.11995833333334,64.54491666666667
452,2018-05-31,26.375124999999997,42.28408333333333,68.65920833333332
452,2018-06-01,24.185874999999996,41.59920833333333,65.78508333333332
452,2018-06-02,0.0,44.49504166666666,44.49504166666666
452,2018-06-03,18.851541666666666,42.70862499999999,61.56016666666666
452,2018-06-04,24.90416666666667,42.22420833333333,67.128375
452,2018-06-05,27.275249999999996,41.875208333333326,69.15045833333332
452,2018-06-06,27.53124999999999,50.69037500000001,78.221625
452,2018-06-07,26.368333333333336,51.922208333333344,78.29054166666668
452,2018-06-08,26.665249999999997,56.90129166666668,83.56654166666668
452,2018-06-09,26.537125000000003,67.752875,94.29
452,2018-06-10,26.322458333333334,67.47683333333335,93.79929166666668
452,2018-06-11,26.29233333333333,57.036624999999994,83.32895833333332
452,2018-06-12,27.213166666666663,53.11475000000001,80.32791666666667
452,2018-06-13,23.521874999999998,56.060125,79.582
452,2018-06-14,25.614249999999995,64.31533333333336,89.92958333333335
452,2018-06-15,25.019624999999994,60.85450000000002,85.87412500000002
452,2018-06-16,27.474749999999997,65.84145833333336,93.31620833333336
452,2018-06-17,23.616749999999996,69.56008333333334,93.17683333333333
452,2018-06-18,11.45304166666667,68.0731666666667,79.52620833333336
452,2018-06-19,19.45204166666667,75.20608333333335,94.65812500000003
452,2018-06-20,21.793333333333333,80.15387500000003,101.94720833333336
452,2018-06-21,25.631083333333326,80.73195833333335,106.36304166666667
452,2018-06-22,27.01170833333333,70.15133333333335,97.16304166666669
452,2018-06-23,26.50491666666667,64.63308333333335,91.13800000000002
452,2018-06-24,25.113583333333327,66.495,91.60858333333333
452,2018-06-25,26.99116666666667,69.28679166666667,96.27795833333334
452,2018-06-26,24.903125,60.38054166666668,85.28366666666668
452,2018-06-27,27.33425,59.63050000000002,86.96475000000002
452,2018-06-28,28.419416666666667,74.43258333333335,102.85200000000002
452,2018-06-29,10.432458333333331,65.47158333333334,75.90404166666667
452,2018-06-30,0.0,58.63308333333333,58.63308333333333
452,2018-07-01,0.0,92.13312500000002,92.13312500000002
452,2018-07-02,0.0,93.97416666666669,93.97416666666669
452,2018-07-03,0.0,86.03675000000003,86.03675000000003
452,2018-07-04,0.0,85.54704166666669,85.54704166666669
452,2018-07-05,0.0,74.12254166666669,74.12254166666669
452,2018-07-06,12.05175,73.19291666666668,85.24466666666667
452,2018-07-07,25.58908333333333,70.89079166666669,96.47987500000002
452,2018-07-08,27.460791666666662,65.54716666666668,93.00795833333335
452,2018-07-09,27.215166666666672,73.94041666666668,101.15558333333335
452,2018-07-10,24.83733333333333,90.28145833333333,115.11879166666667
452,2018-07-11,32.6335,95.26070833333337,127.89420833333337
452,2018-07-12,29.444249999999997,82.06787500000002,111.51212500000001
452,2018-07-13,31.658833333333337,76.3830416666667,108.04187500000003
452,2018-07-14,31.80395833333334,87.06283333333336,118.8667916666667
452,2018-07-15,26.719875000000002,93.76850000000002,120.48837500000002
452,2018-07-16,14.6255,89.6435416666667,104.26904166666671
452,2018-07-17,25.173291666666668,91.01854166666669,116.19183333333336
452,2018-07-18,26.93645833333333,86.09137500000001,113.02783333333335
452,2018-07-19,25.8955,75.89612500000003,101.79162500000002
452,2018-07-20,28.83237499999999,75.41170833333337,104.24408333333335
452,2018-07-21,31.13470833333334,68.81275000000002,99.94745833333336
452,2018-07-22,25.302958333333336,80.76845833333336,106.07141666666669
452,2018-07-23,26.62991666666667,92.72162500000002,119.35154166666669
452,2018-07-24,24.922458333333328,97.75279166666668,122.67525
452,2018-07-25,25.410708333333332,92.57837500000001,117.98908333333334
452,2018-07-26,26.855166666666666,92.88820833333334,119.743375
452,2018-07-27,26.640666666666664,97.98458333333333,124.62525
452,2018-07-28,27.27054166666667,94.55495833333335,121.82550000000002
452,2018-07-29,26.31583333333333,93.38825000000003,119.70408333333336
452,2018-07-30,26.274666666666672,85.16429166666668,111.43895833333336
452,2018-07-31,28.07741666666666,78.83625000000002,106.91366666666669